STARLINK AR

Last updated on Jan. 16, 2020, 12:02 a.m. UTC

1 44953U 20001AR  20015.58334491  .00054945  12417-4  14385-3 0  9993
2 44953  52.9990 354.4783 0008392 293.3784 254.9834 15.95289908  2646

Satellite is not in orbit.